FW2254 Weather Reports


Display with metric or nautical units.
time (UTC)temp
F
wind
direction
speed
MPH
gust
MPH
rain 1hr
in
rain 24hr
in
rain mn
in
humidity
%
barometer
mb
20260831041523 84 26 0.0 0.0 0.00 0.00 0.00 61 1011.6
20260831040023 85 26 0.0 0.0 0.00 0.00 0.00 61 1011.8
20260831034522 84 26 0.0 0.0 0.00 0.00 0.00 63 1011.7
20260831033031 84 26 0.0 1.0 0.00 0.00 0.00 63 1011.5
20260831030051 84 26 0.0 1.0 0.00 0.00 0.00 67 1011.2
20260831024556 85 26 0.0 0.0 0.00 0.00 0.00 61 1010.9
20260831023056 85 26 0.0 0.0 0.00 0.00 0.00 58 1010.6
20260831021547 86 26 0.0 0.0 0.00 0.00 0.00 57 1010.4
20260831020108 87 26 0.0 0.0 0.00 0.00 0.00 55 1010.3
20260831014546 88 26 0.0 0.0 0.00 0.00 0.00 55 1010.3
20260831013044 89 26 0.0 0.0 0.00 0.00 0.00 52 1010.1
20260831011553 89 26 0.0 0.0 0.00 0.00 0.00 50 1009.9
20260831010043 91 26 0.0 0.0 0.00 0.00 0.00 49 1009.8
20260831004548 92 26 0.0 0.0 0.00 0.00 0.00 47 1009.8
20260831003014 93 26 0.0 0.0 0.00 0.00 0.00 45 1009.8
20260831001514 95 26 0.0 0.0 0.00 0.00 0.00 43 1009.8
20260831000009 96 26 0.0 1.0 0.00 0.00 0.00 41 1009.7
20260830234508 97 26 0.0 1.0 0.00 0.00 0.00 40 1009.6
20260830233008 98 29 0.0 1.0 0.00 0.00 0.00 39 1009.8
20260830231515 99 29 0.0 2.0 0.00 0.00 0.00 36 1009.8
20260830230007 99 29 0.0 2.0 0.00 0.00 0.00 36 1009.8
20260830224506 99 29 0.0 3.0 0.00 0.00 0.00 34 1009.8
20260830223004 100 29 0.0 2.0 0.00 0.00 0.00 34 1009.8
20260830221503 100 29 1.0 4.0 0.00 0.00 0.00 34 1009.8
20260830220112 100 29 0.0 1.0 0.00 0.00 0.00 34 1010.0
20260830214558 100 29 1.0 4.0 0.00 0.00 0.00 35 1010.2
20260830213119 100 29 0.0 4.0 0.00 0.00 0.00 35 1010.3
20260830211559 100 29 0.0 4.0 0.00 0.00 0.00 37 1010.4
20260830210058 101 29 1.0 4.0 0.00 0.00 0.00 37 1010.5
20260830204556 101 29 1.0 3.0 0.00 0.00 0.00 36 1010.7
20260830203053 102 29 1.0 4.0 0.00 0.00 0.00 36 1011.1
20260830201544 103 29 0.0 5.0 0.00 0.00 0.00 35 1011.3
20260830200040 104 29 1.0 3.0 0.00 0.00 0.00 34 1011.5
20260830194540 102 28 1.0 3.0 0.00 0.00 0.00 37 1011.9
20260830193039 101 28 1.0 3.0 0.00 0.00 0.00 36 1012.0
20260830191538 104 28 2.0 4.0 0.00 0.00 0.00 35 1012.3
20260830190033 103 28 1.0 5.0 0.00 0.00 0.00 36 1012.3
20260830184531 100 28 1.0 3.0 0.00 0.00 0.00 41 1012.5
20260830183030 100 28 0.0 3.0 0.00 0.00 0.00 43 1012.8
20260830181532 101 28 1.0 3.0 0.00 0.00 0.00 39 1012.9
20260830180028 101 28 0.0 6.0 0.00 0.00 0.00 41 1013.1
20260830174520 100 28 0.0 3.0 0.00 0.00 0.00 43 1013.1
20260830173017 100 28 1.0 3.0 0.00 0.00 0.00 44 1013.4
20260830171514 100 28 0.0 4.0 0.00 0.00 0.00 44 1013.5
20260830170014 99 28 1.0 3.0 0.00 0.00 0.00 47 1013.9
20260830164505 98 28 0.0 4.0 0.00 0.00 0.00 51 1014.0
20260830163101 96 28 0.0 3.0 0.00 0.00 0.00 53 1014.0
20260830163005 96 28 0.0 3.0 0.00 0.00 0.00 52 1014.1
20260830161612 94 28 0.0 3.0 0.00 0.00 0.00 56 1014.2
20260830160051 92 28 1.0 4.0 0.00 0.00 0.00 58 1014.3
20260830154549 91 28 0.0 3.0 0.00 0.00 0.00 60 1014.3
20260830153054 90 28 1.0 3.0 0.00 0.00 0.00 62 1014.3
20260830151546 89 28 0.0 3.0 0.00 0.00 0.00 65 1014.3
20260830150035 87 28 0.0 2.0 0.00 0.00 0.00 70 1014.3
20260830144639 85 28 0.0 3.0 0.00 0.00 0.00 73 1014.4
20260830143031 84 28 0.0 2.0 0.00 0.00 0.00 76 1014.5
20260830141526 83 28 0.0 0.0 0.00 0.00 0.00 77 1014.4
20260830140024 82 28 0.0 3.0 0.00 0.00 0.00 78 1014.6
20260830134530 81 28 0.0 1.0 0.00 0.00 0.00 80 1014.6
20260830133019 79 28 0.0 0.0 0.00 0.00 0.00 82 1014.6
20260830131517 77 28 0.0 0.0 0.00 0.00 0.00 83 1014.4
20260830130012 76 28 0.0 0.0 0.00 0.00 0.00 84 1014.3
20260830124510 76 28 0.0 0.0 0.00 0.00 0.00 85 1014.1
20260830123009 75 28 0.0 0.0 0.00 0.00 0.00 83 1014.0
20260830121509 75 28 0.0 0.0 0.00 0.00 0.00 83 1013.8
20260830120004 74 28 0.0 0.0 0.00 0.00 0.00 82 1013.6
20260830114616 75 28 0.0 0.0 0.00 0.00 0.00 81 1013.4
20260830113059 75 28 0.0 0.0 0.00 0.00 0.00 81 1013.3
20260830111559 75 28 0.0 0.0 0.00 0.00 0.00 80 1013.2
20260830110056 75 28 0.0 0.0 0.00 0.00 0.00 79 1013.2
20260830104554 76 28 0.0 0.0 0.00 0.00 0.00 79 1012.9
20260830103051 76 28 0.0 0.0 0.00 0.00 0.00 78 1012.8
20260830101554 76 28 0.0 0.0 0.00 0.00 0.00 77 1012.7
20260830100051 76 28 0.0 1.0 0.00 0.00 0.00 76 1012.7
20260830094516 77 28 0.0 0.0 0.00 0.00 0.00 75 1012.6
20260830093016 77 28 0.0 2.0 0.00 0.00 0.00 75 1012.6
20260830091544 77 28 0.0 0.0 0.00 0.00 0.00 74 1012.6
20260830090043 77 28 0.0 2.0 0.00 0.00 0.00 74 1012.5
20260830084538 78 28 0.0 0.0 0.00 0.00 0.00 73 1012.6
20260830083042 78 28 0.0 0.0 0.00 0.00 0.00 72 1012.7
20260830081535 78 28 0.0 1.0 0.00 0.00 0.00 72 1012.8
20260830080034 79 28 0.0 0.0 0.00 0.00 0.00 71 1012.7
20260830074501 79 28 0.0 0.0 0.00 0.00 0.00 70 1012.8
20260830073100 79 28 0.0 0.0 0.00 0.00 0.00 69 1012.7
20260830071558 80 28 0.0 1.0 0.00 0.00 0.00 69 1012.8
20260830070054 80 28 0.0 1.0 0.00 0.00 0.00 69 1013.0
20260830064557 80 28 0.0 0.0 0.00 0.00 0.00 69 1012.9
20260830063052 80 28 0.0 0.0 0.00 0.00 0.00 68 1013.1
20260830061547 81 28 0.0 0.0 0.00 0.00 0.00 66 1013.0
20260830060046 81 28 0.0 0.0 0.00 0.00 0.00 65 1013.1
20260830054544 82 28 0.0 0.0 0.00 0.00 0.00 64 1012.9
20260830053041 82 28 0.0 1.0 0.00 0.00 0.00 63 1012.9
20260830051538 83 28 0.0 1.0 0.00 0.00 0.00 62 1012.8
20260830050038 83 28 0.0 2.0 0.00 0.00 0.00 61 1012.7
20260830044534 83 28 0.0 2.0 0.00 0.00 0.00 61 1012.8
20260830043031 83 28 0.0 1.0 0.00 0.00 0.00 61 1012.7